| time (UTC) | temp F | wind direction | speed MPH | gust MPH | rain 1hr in | rain 24hr in | rain mn in | humidity % | barometer mb |
| 20260504195158 | 50 | 270 | 0.0 | 5.0 | 0.00 | 0.16 | 0.00 | 84 | 1017.0 |
| 20260504193658 | 50 | 292 | 0.0 | 5.0 | 0.00 | 0.16 | 0.00 | 82 | 1017.0 |
| 20260504185158 | 54 | 247 | 2.0 | 5.0 | 0.00 | 0.16 | 0.00 | 74 | 1016.0 |
| 20260504183658 | 54 | 270 | 2.0 | 6.0 | 0.00 | 0.16 | 0.00 | 75 | 1016.0 |
| 20260504175157 | 54 | 292 | 2.0 | 8.0 | 0.00 | 0.16 | 0.00 | 72 | 1014.0 |
| 20260504173659 | 54 | 112 | 2.0 | 8.0 | 0.00 | 0.16 | 0.00 | 72 | 1014.0 |
| 20260504045159 | 82 | 247 | 17.0 | 22.0 | 0.00 | 0.16 | 0.16 | 74 | 995.0 |
| 20260504043659 | 81 | 270 | 12.0 | 22.0 | 0.00 | 0.16 | 0.16 | 75 | 996.0 |
| 20260504035158 | 81 | 270 | 6.0 | 22.0 | 0.00 | 0.16 | 0.16 | 82 | 996.0 |
| 20260504033657 | 79 | 270 | 6.0 | 22.0 | 0.00 | 0.16 | 0.16 | 84 | 996.0 |
| 20260504025157 | 79 | 225 | 10.0 | 18.0 | 0.00 | 0.16 | 0.16 | 89 | 997.0 |
| 20260504023659 | 79 | 292 | 13.0 | 18.0 | 0.00 | 0.16 | 0.16 | 91 | 997.0 |
| 20260504015158 | 77 | 270 | 10.0 | 18.0 | 0.00 | 0.16 | 0.16 | 98 | 997.0 |
| 20260504013657 | 77 | 270 | 10.0 | 18.0 | 0.00 | 0.16 | 0.16 | 99 | 997.0 |
| 20260504005157 | 75 | 247 | 10.0 | 22.0 | 0.00 | 0.16 | 0.16 | 99 | 997.0 |
| 20260504003659 | 79 | 292 | 10.0 | 22.0 | 0.00 | 0.16 | 0.16 | 99 | 997.0 |
| 20260503235157 | 75 | 270 | 10.0 | 25.0 | 0.00 | 0.16 | 0.16 | 99 | 997.0 |
| 20260503233657 | 75 | 270 | 6.0 | 26.0 | 0.01 | 0.16 | 0.16 | 99 | 997.0 |
| 20260503225157 | 75 | 270 | 14.0 | 30.0 | 0.12 | 0.16 | 0.16 | 99 | 997.0 |
| 20260503223659 | 75 | 292 | 18.0 | 30.0 | 0.12 | 0.15 | 0.15 | 99 | 997.0 |
| 20260503215157 | 73 | 247 | 17.0 | 24.0 | 0.04 | 0.04 | 0.04 | 99 | 997.0 |
| 20260503213657 | 72 | 225 | 22.0 | 21.0 | 0.03 | 0.03 | 0.03 | 99 | 997.0 |
| 20260503205158 | 72 | 247 | 6.0 | 17.0 | 0.00 | 0.00 | 0.00 | 99 | 998.0 |
| 20260503203657 | 72 | 292 | 8.0 | 14.0 | 0.00 | 0.00 | 0.00 | 99 | 998.0 |